Regional Weather Roundup
Issued by NWS Sterling, VA

Home | Current Version | Previous Version | Graphics & Text | Print | Product List | Glossary On
Versions: 1 2 3 4 5 6 7 8 9 10 11 12 13 14 15 16 17 18 19 20 21 22 23 24 25 26 27 28 29 30 31 32 33 34 35 36 37 38 39 40 41 42 43 44 45 46 47 48 49 50
000
ASUS41 KLWX 050710
RWRLWX

REGIONAL WEATHER ROUNDUP
NATIONAL WEATHER SERVICE BALTIMORE MD/WASHINGTON DC
300 AM EDT THU MAY 05 2016

Note: "FAIR" indicates few or no clouds below 12,000 feet
with no significant weather and/or obstructions to visibility.
 TC=TEMPERATURE CELSIUS

 * =Non NWS site. Station does not report precipitation (e.g. rain,
    snow, etc.), thunder, or fog.

DCZ001-MDZ009-015-VAZ040>042-051-053>054-050800-
WASHINGTON METRO

CITY           SKY/WX    TMP DP  RH WIND       PRES   REMARKS
WASHINGTON NAT DRIZZLE   51  49  92 NE9       29.69F
DULLES         CLOUDY    51  47  86 NE8       29.68F
ANDREWS AFB    CLOUDY    50  48  93 NE7       29.67F
FT BELVOIR     CLOUDY    52  48  87 VRB1      29.68F
QUANTICO       CLOUDY    54  51  90 E13       29.68F
COLLEGE PARK*  CLOUDY    48  46  93 CALM      29.69F
LEESBURG*      LGT RAIN  52  52 100 E7        29.69F
MANASSAS*      CLOUDY    54  50  87 NE3       29.68F
GAITHERSBURG*  CLOUDY    48  45  87 CALM      29.73S

$$

MDZ006>007-011-014-050800-
BALTIMORE METRO

CITY           SKY/WX    TMP DP  RH WIND       PRES   REMARKS
BWI AIRPORT    DRIZZLE   50  48  93 E9        29.69F FOG
MD SCIENCE CTR   N/A     51  48  89 MISG      29.69F
MARTIN STATE   LGT RAIN  50  50 100 CALM      29.71F
ANNAPOLIS      CLOUDY    51  48  89 NE9       29.68F
FORT MEADE*    CLOUDY    50  45  81 E7        29.71F

$$

MDZ012-015-019>023-050800-
MARYLAND EASTERN SHORE

CITY           SKY/WX    TMP DP  RH WIND       PRES   REMARKS
OCEAN CITY     CLOUDY    49  46  90 NE12G21   29.66F
SALISBURY      CLOUDY    49  47  93 NE10      29.66S
CAMBRIDGE*     CLOUDY    48  46  93 NE9       29.66F
EASTON*        CLOUDY   N/A N/A N/A E6        29.72F HAZE

$$

MDZ017>025-050800-
SOUTHERN MARYLAND

CITY           SKY/WX    TMP DP  RH WIND       PRES   REMARKS
PATUXENT RIVER CLOUDY    51  47  86 E7        29.66F
ST INIGOES     CLOUDY    52  49  89 NE7       29.65F
LEONARDTOWN*   CLOUDY    50  46  87 NE3       29.68F

$$

MDZ003>005-050800-
NORTH CENTRAL MARYLAND

CITY           SKY/WX    TMP DP  RH WIND       PRES   REMARKS
FREDERICK*     CLOUDY    50  50 100 E3        29.72S
HAGERSTOWN APT CLOUDY    52  46  80 E8        29.68F
WESTMINSTER*   CLOUDY    48  34  57 E5        29.69F HAZE

$$

MDZ501>502-050800-
WESTERN MARYLAND

CITY           SKY/WX    TMP DP  RH WIND       PRES   REMARKS
OAKLAND*       CLOUDY    41  41 100 CALM      29.66F FOG
CUMBERLAND*    CLOUDY    54  54 100 CALM      29.70F

$$

VAZ025>031-050800-
SHENANDOAH VALLEY

CITY           SKY/WX    TMP DP  RH WIND       PRES   REMARKS
WINCHESTER*    DRIZZLE   52  50  93 E6        29.67S
FRONT ROYAL*   CLOUDY    52  50  93 E5        29.65F
LURAY*         CLOUDY    52  52 100 NE5       29.65S
NEW MARKET*    CLOUDY    50  50  99 CALM      29.65S
STAUNTON*      FAIR      52  51  97 N3        29.66F
WAYNESBORO*    PTSUNNY   50  48  95 CALM      29.64F

$$

WVZ021-048>050-054>055-050800-
EASTERN WEST VIRGINIA PANHANDLE

CITY           SKY/WX    TMP DP  RH WIND       PRES   REMARKS
MARTINSBURG    LGT RAIN  51  49  92 E6        29.67F FOG
PETERSBURG*    CLOUDY    53  49  89 CALM      29.66F

$$

VAZ036>039-050-050800-
CENTRAL FOOTHILLS

CITY           SKY/WX    TMP DP  RH WIND       PRES   REMARKS
CHARLOTTESVILL CLOUDY    54  51  90 NE6       29.64F
CULPEPER*      RAIN      53  52  97 NE3       29.67S
ORANGE*        CLOUDY    54  54 100 CALM      29.67R
GORDONSVILLE*  CLOUDY    53  53  99 NE3       29.64F
WARRENTON*     CLOUDY    53  47  81 NE8       29.66F

$$

VAZ055>057-050800-
NORTH AND CENTRAL PIEDMONT

CITY           SKY/WX    TMP DP  RH WIND       PRES   REMARKS
FREDERICKSBRG* DRIZZLE   54  54 100 NE5       29.66F
STAFFORD*      RAIN      52  50  94 E8        29.71F

$$

NCZ024-NYZ072-PAZ021-071-VAZ022-071-050800-
OTHER REGIONAL OBSERVATIONS

CITY           SKY/WX    TMP DP  RH WIND       PRES   REMARKS
NEW YORK CITY  CLOUDY    48  42  80 VRB6      29.75S
PHILADELPHIA   CLOUDY    50  44  80 E9        29.71F
PITTSBURGH     CLOUDY    50  46  86 CALM      29.66F
ROANOKE        FAIR      54  44  69 N7        29.64F
RICHMOND       DRIZZLE   54  53  97 NE7       29.64F FOG
RALEIGH        PTCLDY    52  50  93 CALM      29.59F

$$

ANZ530>537-050800-
MARINE OBSERVATIONS

STATION/POSITION TIME  TEMP    WIND        PRES
                       AIR SEA DIR/SP/G
                 (UTC) (F)     (DEG/KT/KT) (MB)
THOMAS PT LIGHT  0700   51 58   60/  8/  9 1006.3F
BALT KEY BRIDGE  0600   52      80/ 11/ 12 1005.7F
COVE POINT       0600   50      90/ 13/ 15 1005.4F
LEWISETTA        0600   54 62   90/ 15/ 18 1004.1F
SOLOMONS ISLAND  0600   52 60   60/ 11/ 12   N/A
PINEY POINT      0600           70/  8/ 11   N/A

$$




USA.gov is the U.S. government's official web portal to all federal, state and local government web resources and services.